Location: D�derode
(51.8092°N, 10.1065°E)
Time: 05:51:59
(UTC+00:00)

Cosmos 2285 Rocket - Pass Details

Date: 01 December 2020
Orbit: 971 x 998 km, 74.0° (Epoch: 23 January)

Event Time Altitude Azimuth Distance (km) Brightness Sun altitude
Rises 15:37:37 0° 335° (NNW) 3,722 7.0 -4.1°
Reaches altitude 10° 15:40:16 10° 340° (NNW) 2,766 6.3 -4.4°
Maximum altitude 15:46:34 55° 58° (ENE) 1,179 4.2 -5.3°
Drops below altitude 10° 15:52:46 10° 136° (SE) 2,732 6.2 -6.1°
Sets 15:55:22 0° 140° (SE) 3,673 6.9 -6.5°
